Time,TemperatureF,DewpointF,PressureIn,WindDirection,WindDirectionDegrees,WindSpeedMPH,WindSpeedGustMPH,Humidity,HourlyPrecipIn,Conditions,Clouds,dailyrainin,SoftwareType,DateUTC
2013-01-24 00:07:00,63.0,57.1,30.21,NE,45,3.2,-999.0,81,-99.99,,,0.00,Acu-Link.com,2013-01-24 05:07:00,
2013-01-24 00:22:00,62.8,56.5,30.21,NE,45,3.7,-999.0,80,-99.99,,,0.00,Acu-Link.com,2013-01-24 05:22:00,
2013-01-24 00:37:00,62.4,55.8,30.21,NE,45,3.2,-999.0,79,-99.99,,,0.00,Acu-Link.com,2013-01-24 05:37:00,
2013-01-24 00:52:00,61.9,55.7,30.20,East,90,3.2,-999.0,80,-99.99,,,0.00,Acu-Link.com,2013-01-24 05:52:00,
2013-01-24 01:08:00,61.9,55.7,30.20,ENE,67,3.2,-999.0,80,-99.99,,,0.00,Acu-Link.com,2013-01-24 06:08:00,
2013-01-24 01:23:00,62.1,56.2,30.20,NE,45,4.2,-999.0,81,-99.99,,,0.00,Acu-Link.com,2013-01-24 06:23:00,
2013-01-24 01:38:00,62.2,56.3,30.20,NNW,337,4.7,-999.0,81,-99.99,,,0.00,Acu-Link.com,2013-01-24 06:38:00,
2013-01-24 01:54:00,62.4,56.1,30.19,NE,45,4.7,-999.0,80,-99.99,,,0.00,Acu-Link.com,2013-01-24 06:54:00,
2013-01-24 02:09:00,62.1,55.5,30.20,ENE,67,5.8,-999.0,79,-99.99,,,0.00,Acu-Link.com,2013-01-24 07:09:00,
2013-01-24 02:24:00,61.9,56.0,30.19,NE,45,3.7,-999.0,81,-99.99,,,0.00,Acu-Link.com,2013-01-24 07:24:00,
2013-01-24 02:40:00,61.9,55.7,30.19,NNW,337,4.2,-999.0,80,-99.99,,,0.00,Acu-Link.com,2013-01-24 07:40:00,
2013-01-24 02:55:00,62.2,56.6,30.18,NNE,22,5.3,-999.0,82,-99.99,,,0.00,Acu-Link.com,2013-01-24 07:55:00,
2013-01-24 03:10:00,61.7,55.8,30.18,NNE,22,4.7,-999.0,81,-99.99,,,0.00,Acu-Link.com,2013-01-24 08:10:00,
2013-01-24 03:26:00,62.1,56.5,30.18,ENE,67,5.8,-999.0,82,-99.99,,,0.00,Acu-Link.com,2013-01-24 08:26:00,
2013-01-24 03:41:00,62.1,56.2,30.18,NE,45,4.7,-999.0,81,-99.99,,,0.00,Acu-Link.com,2013-01-24 08:41:00,
2013-01-24 03:56:00,61.9,55.7,30.18,NE,45,5.3,-999.0,80,-99.99,,,0.00,Acu-Link.com,2013-01-24 08:56:00,
2013-01-24 04:16:00,61.9,55.7,30.18,NNE,22,4.2,-999.0,80,-99.99,,,0.00,Acu-Link.com,2013-01-24 09:16:00,
2013-01-24 04:31:00,61.9,55.7,30.18,NE,45,5.3,-999.0,80,-99.99,,,0.00,Acu-Link.com,2013-01-24 09:31:00,
2013-01-24 04:47:00,62.1,56.2,30.18,NNW,337,3.2,-999.0,81,-99.99,,,0.00,Acu-Link.com,2013-01-24 09:47:00,
2013-01-24 05:02:00,61.5,54.9,30.18,NNE,22,3.2,-999.0,79,-99.99,,,0.00,Acu-Link.com,2013-01-24 10:02:00,
2013-01-24 05:17:00,61.3,55.1,30.18,NE,45,3.2,-999.0,80,-99.99,,,0.00,Acu-Link.com,2013-01-24 10:17:00,
2013-01-24 05:32:00,61.3,55.4,30.18,NE,45,3.2,-999.0,81,-99.99,,,0.00,Acu-Link.com,2013-01-24 10:32:00,
2013-01-24 05:48:00,61.3,55.4,30.18,North,0,4.2,-999.0,81,-99.99,,,0.00,Acu-Link.com,2013-01-24 10:48:00,
2013-01-24 06:03:00,61.0,55.1,30.18,NE,45,4.7,-999.0,81,-99.99,,,0.00,Acu-Link.com,2013-01-24 11:03:00,
2013-01-24 06:18:00,61.2,55.3,30.18,NE,45,6.3,-999.0,81,-99.99,,,0.00,Acu-Link.com,2013-01-24 11:18:00,
2013-01-24 06:33:00,61.0,54.8,30.19,NE,45,5.8,-999.0,80,-99.99,,,0.00,Acu-Link.com,2013-01-24 11:33:00,
2013-01-24 06:49:00,61.2,55.0,30.19,North,0,5.3,-999.0,80,-99.99,,,0.00,Acu-Link.com,2013-01-24 11:49:00,
2013-01-24 07:04:00,61.2,54.6,30.20,NNE,22,4.7,-999.0,79,-99.99,,,0.00,Acu-Link.com,2013-01-24 12:04:00,
2013-01-24 07:19:00,61.7,55.1,30.21,North,0,5.8,-999.0,79,-99.99,,,0.00,Acu-Link.com,2013-01-24 12:19:00,
2013-01-24 07:34:00,61.3,54.0,30.21,NNE,22,4.7,-999.0,77,-99.99,,,0.00,Acu-Link.com,2013-01-24 12:34:00,
2013-01-24 07:50:00,61.9,53.9,30.23,NW,315,4.2,-999.0,75,-99.99,,,0.00,Acu-Link.com,2013-01-24 12:50:00,
2013-01-24 08:05:00,62.1,53.3,30.23,North,0,5.3,-999.0,73,-99.99,,,0.00,Acu-Link.com,2013-01-24 13:05:00,
2013-01-24 08:20:00,62.8,52.9,30.24,North,0,5.8,-999.0,70,-99.99,,,0.00,Acu-Link.com,2013-01-24 13:20:00,
2013-01-24 08:36:00,64.0,52.0,30.24,NE,45,4.7,-999.0,65,-99.99,,,0.00,Acu-Link.com,2013-01-24 13:36:00,
2013-01-24 08:51:00,64.6,52.6,30.25,NE,45,5.8,-999.0,65,-99.99,,,0.00,Acu-Link.com,2013-01-24 13:51:00,
2013-01-24 09:06:00,65.5,53.8,30.24,NNE,22,4.7,-999.0,66,-99.99,,,0.00,Acu-Link.com,2013-01-24 14:06:00,
2013-01-24 09:21:00,65.8,53.7,30.25,NNE,22,5.8,-999.0,65,-99.99,,,0.00,Acu-Link.com,2013-01-24 14:21:00,
2013-01-24 09:37:00,66.9,53.9,30.25,NE,45,5.8,-999.0,63,-99.99,,,0.00,Acu-Link.com,2013-01-24 14:37:00,
2013-01-24 09:52:00,67.5,54.9,30.25,NNE,22,6.3,-999.0,64,-99.99,,,0.00,Acu-Link.com,2013-01-24 14:52:00,
2013-01-24 10:07:00,67.8,54.7,30.25,NNE,22,4.2,-999.0,63,-99.99,,,0.00,Acu-Link.com,2013-01-24 15:07:00,
2013-01-24 10:22:00,68.4,54.0,30.25,NNW,337,5.3,-999.0,60,-99.99,,,0.00,Acu-Link.com,2013-01-24 15:22:00,
2013-01-24 10:38:00,68.9,54.4,30.25,NNE,22,4.7,-999.0,60,-99.99,,,0.00,Acu-Link.com,2013-01-24 15:38:00,
2013-01-24 10:53:00,69.1,55.5,30.24,NNE,22,4.2,-999.0,62,-99.99,,,0.00,Acu-Link.com,2013-01-24 15:53:00,
2013-01-24 11:08:00,69.6,56.0,30.23,NNE,22,5.3,-999.0,62,-99.99,,,0.00,Acu-Link.com,2013-01-24 16:08:00,
2013-01-24 11:23:00,70.2,56.6,30.23,NNW,337,5.8,-999.0,62,-99.99,,,0.00,Acu-Link.com,2013-01-24 16:23:00,
2013-01-24 11:39:00,70.2,57.0,30.23,NW,315,5.8,-999.0,63,-99.99,,,0.00,Acu-Link.com,2013-01-24 16:39:00,
2013-01-24 11:54:00,70.5,56.8,30.22,NNE,22,4.7,-999.0,62,-99.99,,,0.00,Acu-Link.com,2013-01-24 16:54:00,
2013-01-24 12:09:00,70.5,56.8,30.22,NNW,337,5.8,-999.0,62,-99.99,,,0.00,Acu-Link.com,2013-01-24 17:09:00,
2013-01-24 12:24:00,70.7,57.0,30.21,North,0,3.7,-999.0,62,-99.99,,,0.00,Acu-Link.com,2013-01-24 17:24:00,
2013-01-24 12:40:00,71.1,57.0,30.20,NE,45,5.3,-999.0,61,-99.99,,,0.00,Acu-Link.com,2013-01-24 17:40:00,
2013-01-24 12:55:00,71.1,57.4,30.19,North,0,4.2,-999.0,62,-99.99,,,0.00,Acu-Link.com,2013-01-24 17:55:00,
2013-01-24 13:10:00,71.6,57.4,30.18,NNW,337,5.3,-999.0,61,-99.99,,,0.00,Acu-Link.com,2013-01-24 18:10:00,
2013-01-24 13:26:00,72.3,56.7,30.17,NW,315,3.7,-999.0,58,-99.99,,,0.00,Acu-Link.com,2013-01-24 18:26:00,
2013-01-24 13:41:00,73.2,58.5,30.16,East,90,5.8,-999.0,60,-99.99,,,0.00,Acu-Link.com,2013-01-24 18:41:00,
2013-01-24 13:56:00,72.5,56.9,30.17,NNW,337,4.7,-999.0,58,-99.99,,,0.00,Acu-Link.com,2013-01-24 18:56:00,
2013-01-24 14:11:00,73.2,57.5,30.16,WNW,292,5.3,-999.0,58,-99.99,,,0.00,Acu-Link.com,2013-01-24 19:11:00,
2013-01-24 14:26:00,73.0,57.8,30.15,ENE,67,6.3,-999.0,59,-99.99,,,0.00,Acu-Link.com,2013-01-24 19:26:00,
2013-01-24 14:42:00,72.9,57.7,30.14,NE,45,5.3,-999.0,59,-99.99,,,0.00,Acu-Link.com,2013-01-24 19:42:00,
2013-01-24 14:57:00,73.6,55.9,30.14,North,0,2.2,-999.0,54,-99.99,,,0.00,Acu-Link.com,2013-01-24 19:57:00,
2013-01-24 15:12:00,73.6,57.9,30.14,NNW,337,4.7,-999.0,58,-99.99,,,0.00,Acu-Link.com,2013-01-24 20:12:00,
2013-01-24 15:28:00,73.4,58.2,30.14,WNW,292,3.2,-999.0,59,-99.99,,,0.00,Acu-Link.com,2013-01-24 20:28:00,
2013-01-24 15:43:00,73.8,59.0,30.13,East,90,8.9,-999.0,60,-99.99,,,0.00,Acu-Link.com,2013-01-24 20:43:00,
2013-01-24 15:58:00,73.0,59.2,30.14,East,90,4.7,-999.0,62,-99.99,,,0.00,Acu-Link.com,2013-01-24 20:58:00,
2013-01-24 16:14:00,72.9,59.1,30.14,East,90,6.8,-999.0,62,-99.99,,,0.00,Acu-Link.com,2013-01-24 21:14:00,
2013-01-24 16:29:00,72.7,59.8,30.14,East,90,5.3,-999.0,64,-99.99,,,0.00,Acu-Link.com,2013-01-24 21:29:00,
2013-01-24 16:44:00,72.5,59.2,30.16,ENE,67,4.7,-999.0,63,-99.99,,,0.00,Acu-Link.com,2013-01-24 21:44:00,
2013-01-24 17:00:00,72.5,58.3,30.17,ENE,67,4.7,-999.0,61,-99.99,,,0.00,Acu-Link.com,2013-01-24 22:00:00,
2013-01-24 17:15:00,72.3,58.1,30.17,ENE,67,4.7,-999.0,61,-99.99,,,0.00,Acu-Link.com,2013-01-24 22:15:00,
2013-01-24 17:30:00,72.0,58.7,30.17,ENE,67,7.3,-999.0,63,-99.99,,,0.00,Acu-Link.com,2013-01-24 22:30:00,
2013-01-24 17:45:00,71.6,58.8,30.17,NE,45,3.7,-999.0,64,-99.99,,,0.00,Acu-Link.com,2013-01-24 22:45:00,
2013-01-24 18:01:00,71.2,58.8,30.18,ENE,67,5.8,-999.0,65,-99.99,,,0.00,Acu-Link.com,2013-01-24 23:01:00,
2013-01-24 18:16:00,70.9,58.5,30.18,East,90,6.8,-999.0,65,-99.99,,,0.00,Acu-Link.com,2013-01-24 23:16:00,
2013-01-24 18:31:00,70.3,57.5,30.18,NE,45,4.7,-999.0,64,-99.99,,,0.00,Acu-Link.com,2013-01-24 23:31:00,
2013-01-24 18:47:00,70.0,57.3,30.18,ENE,67,4.7,-999.0,64,-99.99,,,0.00,Acu-Link.com,2013-01-24 23:47:00,
2013-01-24 19:02:00,69.6,56.9,30.18,ENE,67,4.2,-999.0,64,-99.99,,,0.00,Acu-Link.com,2013-01-25 00:02:00,
2013-01-24 19:17:00,69.1,57.3,30.19,NE,45,4.7,-999.0,66,-99.99,,,0.00,Acu-Link.com,2013-01-25 00:17:00,
2013-01-24 19:33:00,68.7,56.0,30.19,ENE,67,5.8,-999.0,64,-99.99,,,0.00,Acu-Link.com,2013-01-25 00:33:00,
2013-01-24 19:48:00,68.4,56.2,30.20,NE,45,3.7,-999.0,65,-99.99,,,0.00,Acu-Link.com,2013-01-25 00:48:00,
2013-01-24 20:03:00,67.8,55.6,30.19,NE,45,4.2,-999.0,65,-99.99,,,0.00,Acu-Link.com,2013-01-25 01:03:00,
2013-01-24 20:19:00,67.3,53.4,30.19,NNE,22,4.2,-999.0,61,-99.99,,,0.00,Acu-Link.com,2013-01-25 01:19:00,
2013-01-24 20:34:00,66.9,54.3,30.20,ENE,67,2.7,-999.0,64,-99.99,,,0.00,Acu-Link.com,2013-01-25 01:34:00,
2013-01-24 20:49:00,66.7,54.1,30.20,NE,45,3.7,-999.0,64,-99.99,,,0.00,Acu-Link.com,2013-01-25 01:49:00,
2013-01-24 21:05:00,66.4,53.8,30.21,NE,45,4.7,-999.0,64,-99.99,,,0.00,Acu-Link.com,2013-01-25 02:05:00,
2013-01-24 21:20:00,66.2,53.7,30.21,ENE,67,4.7,-999.0,64,-99.99,,,0.00,Acu-Link.com,2013-01-25 02:20:00,
2013-01-24 21:35:00,66.0,54.3,30.20,NE,45,5.3,-999.0,66,-99.99,,,0.00,Acu-Link.com,2013-01-25 02:35:00,
2013-01-24 21:51:00,65.7,54.4,30.21,NE,45,5.3,-999.0,67,-99.99,,,0.00,Acu-Link.com,2013-01-25 02:51:00,
2013-01-24 22:06:00,65.5,54.7,30.21,NNE,22,5.3,-999.0,68,-99.99,,,0.00,Acu-Link.com,2013-01-25 03:06:00,
2013-01-24 22:21:00,65.1,54.7,30.22,NE,45,4.7,-999.0,69,-99.99,,,0.00,Acu-Link.com,2013-01-25 03:21:00,
2013-01-24 22:36:00,64.9,54.1,30.23,NE,45,5.3,-999.0,68,-99.99,,,0.00,Acu-Link.com,2013-01-25 03:36:00,
2013-01-24 22:51:00,64.9,54.5,30.23,ENE,67,4.7,-999.0,69,-99.99,,,0.00,Acu-Link.com,2013-01-25 03:51:00,
2013-01-24 23:07:00,64.8,55.2,30.22,ENE,67,5.3,-999.0,71,-99.99,,,0.00,Acu-Link.com,2013-01-25 04:07:00,
2013-01-24 23:22:00,64.6,54.6,30.22,NE,45,4.2,-999.0,70,-99.99,,,0.00,Acu-Link.com,2013-01-25 04:22:00,
2013-01-24 23:37:00,64.4,54.8,30.21,NE,45,4.7,-999.0,71,-99.99,,,0.00,Acu-Link.com,2013-01-25 04:37:00,
2013-01-24 23:53:00,64.2,54.2,30.21,NE,45,3.7,-999.0,70,-99.99,,,0.00,Acu-Link.com,2013-01-25 04:53:00,